CAPE
644 437 208 234 259 0 0 57 231 346 1082 1012 1336 1236 1571 1169 1680 1080 1084 1095 1332 1797
576 300 315 288 134 6 0 2 225 365 750 1093 1341 1155 1297 1385 1060 1078 456 1057 1188 1497
831 627 182 91 34 0 0 0 153 372 284 1023 863 647 1158 961 563 1087 930 1222 890 1043
1024 757 173 338 119 0 0 11 55 105 180 1033 678 1024 1109 1009 796 1103 987 1161 1121 976
809 810 787 591 122 0 0 40 119 10 888 898 883 1040 657 844 1449 918 823 831 923 977
766 874 555 581 572 289 233 630 878 971 826 951 1173 942 1075 1258 954 917 1069 888 983 799
770 723 724 487 355 1000 857 763 645 1027 819 771 692 82 515 1116 1099 915 1020 1311 985 556
577 657 754 942 466 1080 1139 882 747 765 752 0 0 0 0 0 602 764 687 710 639 630
317 367 374 397 306 409 311 329 435 511 191 0 0 1 1 0 7 663 797 805 523 0
356 343 330 241 308 323 223 199 144 67 0 0 0 0 0 0 0 290 562 382 232 0
424 179 74 58 85 219 158 133 44 1 0 0 0 0 0 0 0 0 0 0 0 0
134 40 26 0 0 55 16 0 0 0 0 0 0 0 0 0 0 0 0 0 0 0
151 50 0 0 0 1 0 0 0 0 0 0 0 0 0 0 9 0 0 0 0 0
32 17 7 1 0 0 0 0 0 0 0 0 0 0 0 0 0 0 0 0 0 0
CIN
-50 -104 -197 -161 -198 -0 -0 -231 -198 -176 -27 -24 -33 -32 -29 -45 -52 -88 -91 -84 -94 -87
-45 -110 -118 -165 -261 -228 -0 -34 -234 -171 -58 -28 -28 -25 -22 -32 -44 -59 -93 -70 -75 -82
-34 -37 -154 -192 -81 -0 -0 -0 -259 -183 -139 -44 -34 -31 -27 -48 -58 -59 -66 -45 -43 -63
-26 -33 -146 -135 -221 -0 -0 -279 -288 -233 -173 -24 -36 -32 -31 -38 -40 -41 -36 -33 -30 -35
-38 -38 -41 -67 -166 -0 -0 -160 -182 -45 -50 -34 -30 -32 -68 -40 -21 -42 -38 -35 -27 -23
-35 -37 -41 -43 -68 -121 -117 -77 -55 -41 -40 -35 -30 -33 -39 -37 -39 -44 -42 -33 -31 -29
-53 -35 -37 -56 -50 -52 -50 -46 -39 -33 -31 -44 -58 -83 -141 -38 -38 -42 -36 -37 -43 -38
-126 -99 -66 -49 -37 -30 -44 -44 -37 -33 -38 -0 -0 -0 -0 -0 -105 -37 -44 -57 -68 -97
-113 -102 -99 -70 -80 -80 -77 -62 -36 -23 -86 -0 -0 -0 -0 -0 -27 -73 -29 -46 -68 -0
-76 -65 -69 -46 -50 -75 -144 -83 -62 -149 -0 -0 -0 -0 -0 -0 -0 -109 -55 -95 -98 -0
-65 -90 -110 -114 -68 -45 -65 -53 -119 -90 -0 -0 -0 -0 -0 -0 -0 -0 -0 -0 -0 -0
-112 -135 -121 -0 -0 -64 -95 -0 -0 -0 -0 -0 -0 -0 -0 -0 -0 -0 -0 -0 -0 -0
-74 -124 -0 -0 -0 -0 -0 -0 -0 -0 -0 -0 -0 -0 -0 -0 -174 -0 -0 -0 -0 -0
-152 -198 -277 -92 -0 -0 -0 -0 -0 -0 -0 -0 -0 -0 -0 -0 -0 -0 -0 -0 -0 -0
Wind_Speed
6 3 3 6 4 5 4 2 3 7 3 3 4 4 3 0 2 4 2 4 5 3
6 9 6 5 4 4 3 3 4 5 7 6 5 4 2 1 2 1 3 4 4 2
6 8 9 8 7 5 4 3 4 6 6 6 6 5 4 2 2 4 3 1 3 3
6 7 10 7 6 7 7 5 4 7 8 2 3 4 3 3 2 2 2 2 2 1
8 7 8 9 9 10 9 7 9 11 6 4 4 3 4 3 1 3 5 6 2 2
12 12 10 9 11 10 9 10 8 6 5 5 5 4 4 5 4 4 4 5 5 6
7 7 8 9 7 10 10 8 7 7 6 5 2 6 5 3 4 3 3 4 2 4
4 3 2 3 6 5 6 7 6 6 5 7 6 6 7 5 5 4 4 4 5 7
2 2 3 3 6 5 4 0 4 5 6 8 6 5 5 6 4 5 2 4 5 7
6 3 2 5 6 4 4 5 4 6 10 8 4 11 11 7 4 3 4 5 5 6
5 6 5 5 1 5 5 8 7 8 7 6 6 9 9 9 3 7 7 8 8 7
6 6 6 6 5 3 7 7 6 5 6 8 7 13 11 5 7 7 8 6 7 6
6 7 6 6 5 5 6 7 5 7 8 10 6 10 11 8 4 7 6 6 6 9
7 8 6 5 4 7 7 7 6 8 7 6 3 6 10 13 6 4 5 4 4 4
Wind_Direction
164 139 173 173 167 178 154 271 315 335 229 224 212 239 221 56 329 31 61 359 3 95
181 140 151 173 181 202 197 156 337 335 276 244 210 217 217 229 315 261 312 354 10 352
192 152 152 171 181 164 157 220 245 275 291 256 191 209 202 107 2 191 235 170 24 12
187 176 151 179 169 171 190 208 239 254 265 209 211 249 154 155 261 292 261 266 142 353
188 187 177 184 181 173 192 203 214 223 231 229 214 221 194 226 242 227 250 251 233 270
196 191 195 193 183 179 191 183 200 199 207 228 226 224 232 214 223 275 280 227 199 216
174 200 180 187 192 177 183 178 184 184 197 220 297 18 347 272 225 243 292 340 13 227
167 93 26 174 180 162 184 174 169 182 195 76 59 27 357 346 329 249 305 329 3 25
175 208 164 306 321 102 61 170 205 197 94 91 72 6 331 4 322 327 292 298 63 71
196 173 145 196 182 144 89 331 0 80 90 78 52 12 355 337 285 305 358 34 65 70
153 138 111 83 111 176 159 148 131 106 117 100 50 17 344 324 256 87 68 72 85 85
138 120 108 100 84 61 112 112 106 98 92 91 38 3 351 4 100 95 81 69 78 88
136 121 114 107 94 91 97 104 97 95 84 83 61 6 20 44 107 99 98 81 72 62
114 106 115 131 116 111 110 103 101 90 81 86 104 47 42 50 63 77 113 86 68 42